Kendall, FL

6:08 AM EDT on March 27, 2017 (GMT -0400)
Kendall-Tamiami Executive

Weather History for KTMB - August, 2014

Change the Weather History Date:

Tuesday, August 19, 2014

  Actual Average Record
Temperature  
Mean Temperature 88 °F -  
Max Temperature 97 °F 89 °F 97 °F (2014)
Min Temperature 79 °F 71 °F 69 °F (1990)
Cooling Degree Days 23    
Growing Degree Days 38 (Base 50)    
Moisture  
Dew Point 75 °F    
Average Humidity 70    
Maximum Humidity 88    
Minimum Humidity 46    
Precipitation  
Precipitation 0.09 in - - ()
Sea Level Pressure  
Sea Level Pressure 30.01 in    
Wind  
Wind Speed 3 mph (ESE)    
Max Wind Speed 14 mph    
Max Gust Speed -    
Visibility 10 miles    
Events Rain , Thunderstorm    
Averages and records for this station are not official NWS values.
T = Trace of Precipitation, MM = Missing Value Source: NWS Daily Summary

Daily Weather History Graph

Daily Weather History Graph

Search for Another Location

Airport or City:

Trip Planner

Search our weather history database for the weather conditions in past years. The results will help you decide how hot, cold, wet, or windy it might be!

Date:

Astronomy

Aug. 19, 2014 Rise Set
Actual Time 6:56 AM EDT 7:53 PM EDT
Civil Twilight 6:32 AM EDT 8:17 PM EDT
Nautical Twilight 6:04 AM EDT 8:45 PM EDT
Astronomical Twilight 5:35 AM EDT 9:14 PM EDT
Moon 1:57 AM EDT (8/19) 3:38 PM EDT (8/19)
Length of Visible Light 13h 44m
Length of Day
12h 56m
Waning Crescent, 29% of the Moon is Illuminated
Aug 19
Waning Crescent
Aug 25
New
Sep 2
First Quarter
Sep 8
Full
Sep 15
Last Quarter

Hourly Weather History & Observations

Time (EDT) Temp. Heat Index Dew Point Humidity Pressure Visibility Wind Dir Wind Speed Gust Speed Precip Events Conditions
12:53 AM 81.0 °F 87.3 °F 75.9 °F 85% 30.02 in 10.0 mi Calm Calm - N/A   Clear
1:53 AM 82.0 °F 88.6 °F 75.0 °F 79% 30.00 in 10.0 mi Calm Calm - N/A   Clear
2:53 AM 80.1 °F 85.1 °F 75.0 °F 85% 30.00 in 10.0 mi NW 3.5 mph - N/A   Partly Cloudy
3:53 AM 79.0 °F - 75.0 °F 88% 29.98 in 10.0 mi Calm Calm - N/A   Clear
4:48 AM 82.4 °F 89.5 °F 75.2 °F 79% 29.99 in 10.0 mi Calm Calm - N/A   Mostly Cloudy
4:53 AM 82.0 °F 88.6 °F 75.0 °F 79% 29.99 in 10.0 mi Calm Calm - N/A   Mostly Cloudy
5:04 AM 82.0 °F 88.6 °F 75.0 °F 79% 29.98 in 10.0 mi Calm Calm - N/A   Scattered Clouds
5:53 AM 81.0 °F 87.3 °F 75.9 °F 85% 29.99 in 10.0 mi Calm Calm - N/A   Scattered Clouds
6:53 AM 81.0 °F 87.3 °F 75.9 °F 85% 30.01 in 10.0 mi East 4.6 mph - N/A   Partly Cloudy
7:53 AM 82.9 °F 91.8 °F 77.0 °F 82% 30.02 in 10.0 mi North 3.5 mph - N/A   Clear
8:53 AM 86.0 °F 98.3 °F 78.1 °F 77% 30.04 in 10.0 mi East 3.5 mph - N/A   Clear
9:53 AM 88.0 °F 98.5 °F 75.9 °F 67% 30.05 in 10.0 mi SSE 3.5 mph - N/A   Clear
10:53 AM 90.0 °F 100.2 °F 75.0 °F 61% 30.06 in 10.0 mi Calm Calm - N/A   Scattered Clouds
11:53 AM 91.0 °F 100.4 °F 73.9 °F 57% 30.05 in 10.0 mi SE 5.8 mph - N/A   Clear
12:53 PM 93.0 °F 103.2 °F 73.9 °F 54% 30.04 in 10.0 mi Variable 3.5 mph - N/A   Partly Cloudy
1:18 PM 93.0 °F 103.2 °F 73.9 °F 54% 30.03 in 10.0 mi SSW 4.6 mph - N/A Thunderstorm Partly Cloudy
1:33 PM 97.0 °F 107.0 °F 73.0 °F 46% 30.03 in 10.0 mi Calm Calm - N/A   Clear
1:53 PM 93.0 °F 101.9 °F 73.0 °F 52% 30.02 in 10.0 mi East 5.8 mph - N/A Thunderstorm Partly Cloudy
2:14 PM 90.0 °F 97.9 °F 73.0 °F 57% 30.02 in 10.0 mi NE 13.8 mph - N/A   Mostly Cloudy
2:53 PM 88.0 °F 98.5 °F 75.9 °F 67% 30.01 in 10.0 mi ENE 6.9 mph - 0.09 in Rain Light Rain
3:53 PM 91.9 °F 103.2 °F 75.0 °F 58% 29.99 in 10.0 mi ESE 8.1 mph - 0.00 in   Partly Cloudy
4:53 PM 90.0 °F 97.9 °F 73.0 °F 57% 29.98 in 10.0 mi ESE 9.2 mph - N/A   Clear
5:53 PM 88.0 °F 98.5 °F 75.9 °F 67% 29.98 in 10.0 mi South 9.2 mph - N/A   Clear
6:53 PM 87.1 °F 96.3 °F 75.0 °F 67% 29.99 in 10.0 mi SSE 4.6 mph - N/A   Clear
7:53 PM 86.0 °F 95.1 °F 75.0 °F 70% 29.99 in 10.0 mi SE 4.6 mph - N/A   Clear
8:53 PM 82.9 °F 90.8 °F 75.9 °F 79% 30.01 in 10.0 mi ESE 5.8 mph - N/A   Clear
9:53 PM 84.9 °F 93.3 °F 75.0 °F 72% 30.03 in 10.0 mi SSE 3.5 mph - N/A   Clear
10:53 PM 84.0 °F 91.9 °F 75.0 °F 74% 30.03 in 10.0 mi SE 4.6 mph - N/A   Clear
11:53 PM 84.0 °F 91.9 °F 75.0 °F 74% 30.04 in 10.0 mi Calm Calm - N/A   Clear